Torna al catalogo

STARLINK-35722

AttivoComunicazioniVLEO
NORAD 66218·PAYLOAD·🇺🇸 United States

Lanciato Oct 28, 2025 da Vandenberg Space Force Base

Loading…

Prossimi Passaggi (prossime 24 ore)

TLE

AggiornatoSource: CelesTrak SupGP

Epoca: Sep 15, 2026, 02:25 UTC

1 66218C 25244N   26258.10118056 -.00022029  00000+0 -65097-3 0  2589
2 66218  53.1589  66.6995 0001165  83.9734  52.6495 15.34395329    10

Traccia STARLINK-35722 in tempo reale con AllMySat

Download on the App Store